#timestamp,LO_Frequency,Hit 
1498406415.4,286047002.1,N
1498406435.2,286047001.8,N
1498406455.1,286047001.4,N
1498406456.0,286047001.4,N
1498406475.8,286047002.6,N
1498406495.6,286047002.8,N
1498406515.5,286047002.6,N
1498406535.3,286047003.9,N
1498406555.2,286047001.4,N
1498406575.9,286047001.5,N
1498406595.7,286047001.5,N
1498406615.6,286047001.6,N
1498406635.4,286047001.7,N
1498406655.2,286047004.4,N
1498406675.1,286047001.4,N
1498406676.0,286047001.4,N
1498406695.8,286047004.2,N
1498406715.7,286047003.8,N
1498406735.5,286047003.7,N
1498406755.3,286047003.5,N
1498406775.2,286047001.5,N
1498406795.0,286047001.3,N
1498406795.9,286047001.3,N
1498406815.7,286047005.9,N
1498406835.6,286047005.9,N
1498406855.4,286047003.1,N
1498406875.3,286047001.5,N
1498406895.1,286047001.6,N
1498406896.0,286047001.6,N
1498406915.8,286047002.2,N
1498406935.7,286047001.3,N
1498406955.5,286047005.9,N
1498406975.3,286047003.3,N
1498406995.2,286047003.9,N
1498407015.0,286047003.6,N
1498407015.9,286047003.6,N
1498407035.8,286047003.7,N
1498407055.6,286047003.1,N
1498407075.4,286047001.7,N
1498407095.3,286047001.5,N
1498407115.1,286047001.3,N
1498407135.9,286047001.7,N
1498407155.7,286047003.6,N
1498407175.5,286047004.1,N
1498407195.4,286047003.2,N
1498407215.2,286047003.2,N
1498407235.0,286047004.4,N
1498407235.9,286047004.4,N
1498407255.8,286047003.8,N
1498407275.6,286047003.7,N
1498407295.5,286047003.0,N
1498407315.3,286047005.6,N
1498407335.1,286047003.4,N
1498407355.9,286047003.2,N
1498407375.7,286047003.2,N
1498407395.5,286047003.6,N
1498407415.4,286047005.6,N
1498407435.2,286047005.9,N
1498407455.1,286047006.0,N
1498407456.0,286047006.0,N
1498407475.8,286047005.2,N
1498407495.6,286047005.5,N
1498407515.5,286047005.7,N
1498407535.3,286047003.3,N
1498407555.1,286047004.0,N
1498407575.9,286047004.1,N
1498407595.7,286047003.5,N
1498407615.6,286047003.4,N
1498407635.4,286047004.1,N
1498407655.2,286047005.9,N
1498407675.1,286047005.3,N
1498407676.0,286047005.3,N
1498407695.8,286047005.1,N
1498407715.6,286047004.6,N
1498407735.5,286047004.7,N
1498407755.3,286047004.7,N
1498407775.2,286047004.9,N
1498407825.9,286047005.8,Y
1498407835.8,286047001.9,N
1498407855.7,286046996.7,N
1498407875.5,286046996.6,N
1498407895.4,286046999.3,N
1498407915.2,286046998.3,N
1498407935.0,286046998.1,N
1498407935.9,286046998.1,N
1498407955.8,286046998.2,N
1498407975.6,286046998.6,N
1498407995.4,286047000.3,N
1498408015.3,286046999.0,N
1498408035.1,286046999.3,N
1498408055.9,286046998.2,N
1498408075.7,286047000.7,N
1498408095.5,286046998.9,N
1498408115.4,286046998.7,N
1498408135.2,286046998.2,N
1498408155.0,286046996.5,N
1498408156.0,286046996.5,N
1498408175.8,286046998.6,N
1498408195.6,286046998.4,N
1498408215.5,286047001.1,N
1498408235.3,286046998.1,N
1498408255.1,286047001.2,N
1498408275.9,286047000.6,N
1498408295.7,286047000.8,N
1498408315.6,286047000.3,N
1498408335.4,286046998.2,N
1498408355.2,286046998.3,N
1498408375.1,286046998.1,N
1498408376.0,286046998.1,N
1498408395.8,286046998.3,N
1498408415.6,286047000.9,N
1498408435.5,286047000.5,N
1498408485.3,286047002.6,Y
1498408495.3,286047000.6,N
1498408515.1,286046995.7,N
1498408535.8,286046997.9,N
1498408555.7,286046996.4,N
1498408575.5,286046994.9,N
1498408595.4,286046996.9,N
1498408615.2,286046997.3,N
1498408635.0,286046995.7,N
1498408635.9,286046995.7,N
1498408655.8,286046995.2,N
1498408675.6,286046997.8,N
1498408695.4,286046995.4,N
1498408715.3,286046997.6,N
1498408735.1,286046997.9,N
1498408755.9,286046994.9,N
1498408775.7,286046994.9,N
1498408795.5,286046997.6,N
1498408815.4,286046997.4,N
1498408835.2,286046997.3,N
1498408855.0,286046997.4,N
1498408856.0,286046997.4,N
1498408875.8,286046995.3,N
1498408895.6,286046995.0,N
1498408915.5,286046999.5,N
1498408935.3,286046996.6,N
1498408955.1,286046999.1,N
1498408975.9,286046998.6,N
1498408995.7,286046999.6,N
1498409015.6,286046999.4,N
1498409035.4,286046999.1,N
1498409055.2,286046998.3,N
1498409075.1,286046998.3,N
1498409076.0,286046998.3,N
1498409095.8,286046998.1,N
1498409115.6,286046998.2,N
1498409135.5,286046998.2,N
1498409155.3,286046998.4,N
1498409175.2,286047000.8,N
1498409195.9,286046998.1,N
1498409215.7,286046998.8,N
1498409235.6,286046999.3,N
1498409255.4,286046998.7,N
1498409275.2,286046999.1,N
1498409295.1,286046999.0,N
1498409296.0,286046999.0,N
1498409315.8,286046998.6,N
1498409335.7,286046999.4,N
1498409355.5,286046996.5,N
1498409375.3,286046997.7,N
1498409395.2,286046999.6,N
1498409415.0,286046999.4,N
1498409415.9,286046999.4,N
1498409435.7,286046996.9,N
1498409455.6,286046995.6,N
1498409475.4,286046997.6,N
1498409495.3,286046997.5,N
1498409515.1,286046997.9,N
1498409516.0,286046997.9,N
1498409535.8,286046997.6,N
1498409555.7,286046997.5,N
1498409575.5,286046998.0,N
1498409595.4,286046997.6,N
1498409615.2,286046998.0,N
1498409635.0,286046995.0,N
1498409635.9,286046995.0,N
1498409655.8,286046994.9,N
1498409675.6,286046997.3,N
1498409695.4,286046995.0,N
1498409715.3,286046994.9,N
1498409735.1,286046997.4,N
1498409755.9,286046996.7,N
1498409775.7,286046997.7,N
1498409795.5,286046995.3,N
1498409815.4,286046995.7,N
1498409835.2,286046995.8,N
1498409855.0,286046995.8,N
1498409855.9,286046995.8,N
1498409875.8,286046995.5,N
1498409895.6,286046995.5,N
1498409915.5,286046995.5,N
1498409935.3,286046995.7,N
1498409955.1,286046995.3,N
1498409975.9,286046994.9,N
1498409995.7,286046996.2,N
